Regional Weather Roundup
Issued by NWS

Home | Current Version | Previous Version | Text Only | Print | Product List | Glossary On
Versions: 1 2 3 4 5 6 7 8 9 10 11 12 13 14 15 16 17 18 19 20 21 22 23 24 25 26 27 28 29 30 31 32 33 34 35 36 37 38 39 40 41 42 43 44 45 46 47 48 49 50
109
ASUS43 KDMX 191201
RWRIA

WEATHER ROUNDUP FOR IOWA
NATIONAL WEATHER SERVICE DES MOINES IA
700 AM CDT THU OCT 19 2017

NOTE: "FAIR" INDICATES FEW OR NO CLOUDS BELOW 12,000 FEET WITH NO
SIGNIFICANT WEATHER AND/OR OBSTRUCTIONS TO VISIBILITY.

* - THESE STATIONS ARE NOT NWS STATIONS...THUS NOT UNDER NWS
QUALITY CONTROL.  THEY ALSO DO NOT REPORT WEATHER SUCH
AS PRECIPITATION OR FOG.

IAZ001>003-012>014-020>022-031>034-043>046-191300-
   NORTHWEST IOWA

CITY           SKY/WX    TMP DP  RH WIND       PRES   REMARKS
CARROLL *      CLOUDY    48  48 100 CALM      30.09S
CHEROKEE *     CLEAR     35  35 100 CALM      30.08S
DENISON *      CLOUDY    45  37  76 E7        30.09S
LE MARS *      CLEAR     36  34  93 CALM      30.06S
ORANGE CITY *  CLOUDY    46  34  61 SE5       30.05S
SHELDON *      CLOUDY    36  32  87 CALM      30.05R
SIOUX CITY     CLOUDY    37  36  96 SE5       30.06F WCI  33
6HR MIN TEMP:  36; 6HR MAX TEMP:  44;

SPENCER        CLOUDY    34  32  92 CALM      30.07S
6HR MIN TEMP:  33; 6HR MAX TEMP:  40;

STORM LAKE *   CLOUDY    45  32  61 SE9       30.07F
$$

IAZ055>058-069>071-079>083-090>094-191300-
   SOUTHWEST IOWA

CITY           SKY/WX    TMP DP  RH WIND       PRES   REMARKS
ATLANTIC *     CLEAR     39  39 100 N6        30.08S WCI  35
AUDUBON *      CLOUDY    37  36  93 CALM      30.10R
CLARINDA *       N/A     43  43 100 NE5       30.10S
COUNCIL BLFS * CLEAR     50  50 100 E7        30.06S
CRESTON *      CLEAR     48  45  87 NE8       30.09F
HARLAN  *      CLOUDY    39  39 100 CALM      30.11S
LAMONI         CLEAR     50  48  93 SE3       30.09R
6HR MIN TEMP:  49; 6HR MAX TEMP:  57;

RED OAK *      CLEAR     43  43 100 CALM      30.08R
SHENANDOAH *   CLEAR     45  45 100 NE6       30.08R
$$

IAZ047>049-059>061-072>074-084-191300-
   CENTRAL IOWA

CITY           SKY/WX    TMP DP  RH WIND       PRES   REMARKS
AMES           CLOUDY    40  39  97 CALM      30.10S
6HR MIN TEMP:  38; 6HR MAX TEMP:  50;

ANKENY *       CLOUDY    45  37  76 CALM      30.12R
BOONE *        CLOUDY    45  36  70 SE7       30.09S
CHARITON *     CLEAR     46  45  93 E6        30.09S FOG
DES MOINES     CLOUDY    52  38  58 E6        30.10R
6HR MIN TEMP:  51; 6HR MAX TEMP:  56;

KNOXVILLE *    CLEAR     52  41  66 E7        30.09S
MARSHALLTOWN     N/A     39  37  92 E3        30.10S
6HR MIN TEMP:  39; 6HR MAX TEMP:  49;

NEWTON *       PTCLDY    48  37  66 NE8       30.11R
PELLA *        CLEAR     50  39  65 CALM      30.12R
PERRY *          N/A     38  38  99 CALM      30.10S
$$

IAZ004>006-015-016-023>025-035-036-191300-
   NORTH CENTRAL IOWA

CITY           SKY/WX    TMP DP  RH WIND       PRES   REMARKS
ALGONA *       PTCLDY    43  34  70 SE6       30.07S
CLARION *      CLOUDY    37  36  93 S7        30.10R WCI  32
ESTHERVILLE    CLOUDY    36  33  89 CALM      30.07R
6HR MIN TEMP:  35; 6HR MAX TEMP:  42;

FORT DODGE *   CLOUDY    39  37  92 CALM      30.10R
MASON CITY     CLOUDY    37  32  82 S7        30.11S WCI  32
6HR MIN TEMP:  34; 6HR MAX TEMP:  43;

FOREST CITY *    N/A     36  36 100 SE5       30.09S WCI  32
WEBSTER CITY * CLOUDY    37  34  87 SE7       30.08S WCI  32
IOWA FALLS *     N/A     42  35  76 CALM      30.11S
$$

IAZ007>011-017>019-026>030-037>042-050>054-066-191300-
   NORTHEAST IOWA

CITY           SKY/WX    TMP DP  RH WIND       PRES   REMARKS
CEDAR RAPIDS   CLEAR     48  36  63 E3        30.10S
6HR MIN TEMP:  45; 6HR MAX TEMP:  54;

CHARLES CITY * CLOUDY    37  37 100 CALM      30.11S
CLINTON *      CLOUDY    43  42  97 NE3       30.12R
DECORAH *      CLOUDY    43  30  61 CALM      30.10R
DUBUQUE        CLOUDY    46  35  65 NE7       30.12R
6HR MIN TEMP:  45; 6HR MAX TEMP:  52;

MONTICELLO *   CLEAR     41  41 100 CALM      30.11S
OELWEIN *      CLOUDY    41  34  75 S3        30.12R
WATERLOO       CLOUDY    36  34  92 CALM      30.11R
6HR MIN TEMP:  35; 6HR MAX TEMP:  45;

$$

IAZ064-065-067-068-078-191300-
   EAST CENTRAL IOWA

CITY           SKY/WX    TMP DP  RH WIND       PRES   REMARKS
DAVENPORT      PTCLDY    43  41  93 CALM      30.13R
6HR MIN TEMP:  43; 6HR MAX TEMP:  57;

IOWA CITY        N/A     46  40  79 CALM      30.12S
6HR MIN TEMP:  44; 6HR MAX TEMP:  52;

MUSCATINE *    CLOUDY    45  43  93 CALM      30.12R
QUAD CITIES    CLOUDY    45  42  89 CALM      30.11R
6HR MIN TEMP:  44; 6HR MAX TEMP:  59;

$$

IAZ062-063-075>077-085>089-095>099-191300-
   SOUTHEAST IOWA

CITY           SKY/WX    TMP DP  RH WIND       PRES   REMARKS
BURLINGTON     CLEAR     47  46  97 CALM      30.10S
6HR MIN TEMP:  47; 6HR MAX TEMP:  55;

FAIRFIELD *    CLEAR     45  43  93 NE6       30.10R
FORT MADISON * CLEAR     48  48 100 CALM      30.11S
KEOKUK *       CLEAR     48  46  93 CALM      30.11R
OSKALOOSA *      N/A     47  42  82 E7        30.11R
OTTUMWA        CLEAR     50  44  80 NE8       30.10R
6HR MIN TEMP:  46; 6HR MAX TEMP:  53;

WASHINGTON *     N/A     48  46  93 NE8       30.12R
$$

ABBREVIATIONS USED IN REMARKS
   TC - TEMPERATURES IN CELSIUS
  WCI - WIND CHILL INDEX
   HX - HEAT INDEX
  VSB - VISIBILITY
$$





USA.gov is the U.S. government's official web portal to all federal, state and local government web resources and services.